When you browse on this site, cookies collect data to enhance your experience and personalize the content and advertising you see.
Visit our Privacy Policy to learn more. By continuing to use the site, you agree to this use of cookies and data.
  • In Austria
  • List of Countries
  • For 7 days
  • Water Temperature
  • Satellite Maps
  • Weather Map
  • News
  • Weather Widgets
  • user-avatar
    Login

    Hourly Weather Solden

    Today, 21 May, Tuesday

    Time Temperature Precipitation Wind Pressure Humidity
    00:00 +1°C° 0.8 mm 1 mps 575 mmHg 94%
    01:00 +1°C° 0 mm 1 mps 576 mmHg 94%
    02:00 +1°C° 0.4 mm 1 mps 576 mmHg 93%
    03:00 +1°C° 0.4 mm 1 mps 576 mmHg 93%
    04:00 +1°C° 0.4 mm 1 mps 576 mmHg 93%
    05:00 +2°C° 0.2 mm 1 mps 576 mmHg 92%
    06:00 +2°C° 0.2 mm 1 mps 577 mmHg 91%
    07:00 +2°C° 0 mm 2 mps 577 mmHg 90%
    08:00 +4°C° 0.2 mm 1 mps 578 mmHg 85%
    09:00 +6°C° 0.2 mm 1 mps 579 mmHg 80%
    10:00 +7°C° 0.2 mm 1 mps 579 mmHg 76%
    11:00 +7°C° 0.2 mm 1 mps 580 mmHg 73%
    12:00 +8°C° 0.2 mm 1 mps 580 mmHg 71%
    13:00 +9°C° 0.2 mm 1 mps 581 mmHg 69%
    14:00 +8°C° 0.2 mm 1 mps 581 mmHg 69%
    15:00 +8°C° 0.2 mm 1 mps 581 mmHg 70%
    16:00 +7°C° 0.2 mm 2 mps 581 mmHg 71%
    17:00 +7°C° 0.1 mm 1 mps 581 mmHg 75%
    18:00 +6°C° 0.1 mm 1 mps 580 mmHg 78%
    19:00 +5°C° 0.1 mm 1 mps 580 mmHg 82%
    20:00 +3°C° 0.1 mm 1 mps 580 mmHg 84%
    21:00 +1°C° 0.1 mm 2 mps 580 mmHg 85%
    22:00 -1°C° 0.1 mm 2 mps 580 mmHg 86%
    23:00 -1°C° 0.1 mm 2 mps 580 mmHg 86%

    Tomorrow, 22 May, Wednesday

    Time Temperature Precipitation Wind Pressure Humidity
    00:00 -1°C° 0.1 mm 2 mps 580 mmHg 86%
    01:00 -1°C° 0.1 mm 2 mps 580 mmHg 86%
    02:00 -2°C° 0.1 mm 2 mps 580 mmHg 86%
    03:00 -2°C° 0.1 mm 2 mps 580 mmHg 86%
    04:00 -2°C° 0.1 mm 2 mps 580 mmHg 87%
    05:00 -1°C° 0 mm 2 mps 580 mmHg 84%
    06:00 +2°C° 0 mm 2 mps 581 mmHg 81%
    07:00 +3°C° 0 mm 2 mps 582 mmHg 78%
    08:00 +4°C° 0 mm 2 mps 583 mmHg 73%
    09:00 +7°C° 0 mm 1 mps 584 mmHg 69%
    10:00 +9°C° 0 mm 1 mps 585 mmHg 64%
    11:00 +9°C° 0.3 mm 1 mps 585 mmHg 62%
    12:00 +10°C° 0.3 mm 1 mps 585 mmHg 61%
    13:00 +11°C° 0.3 mm 1 mps 585 mmHg 60%
    14:00 +10°C° 0.4 mm 1 mps 585 mmHg 61%
    15:00 +10°C° 0.4 mm 1 mps 584 mmHg 63%
    16:00 +9°C° 0.4 mm 1 mps 584 mmHg 64%
    17:00 +8°C° 0.3 mm 1 mps 584 mmHg 70%
    18:00 +7°C° 0.3 mm 1 mps 583 mmHg 75%
    19:00 +6°C° 0.3 mm 1 mps 583 mmHg 80%
    20:00 +4°C° 0.1 mm 1 mps 583 mmHg 83%
    21:00 +2°C° 0.1 mm 2 mps 583 mmHg 85%
    22:00 +1°C° 0.1 mm 2 mps 582 mmHg 88%
    23:00 -1°C° 0 mm 2 mps 582 mmHg 88%

    Day after tomorrow, 23 May, Thursday

    Time Temperature Precipitation Wind Pressure Humidity
    00:00 -1°C° 0 mm 2 mps 582 mmHg 88%
    01:00 -1°C° 0 mm 2 mps 582 mmHg 88%
    02:00 -2°C° 0 mm 2 mps 582 mmHg 88%
    03:00 -2°C° 0 mm 2 mps 582 mmHg 88%
    04:00 -2°C° 0 mm 2 mps 582 mmHg 88%
    05:00 -1°C° 0 mm 2 mps 582 mmHg 84%
    06:00 +3°C° 0 mm 1 mps 583 mmHg 79%
    07:00 +4°C° 0 mm 1 mps 584 mmHg 75%
    08:00 +6°C° 0 mm 1 mps 585 mmHg 69%
    09:00 +8°C° 0 mm 1 mps 585 mmHg 64%
    10:00 +10°C° 0 mm 1 mps 586 mmHg 58%
    11:00 +11°C° 0 mm 1 mps 586 mmHg 55%
    12:00 +12°C° 0 mm 1 mps 587 mmHg 52%
    13:00 +13°C° 0 mm 1 mps 587 mmHg 50%
    14:00 +13°C° 0 mm 1 mps 586 mmHg 50%
    15:00 +12°C° 0 mm 1 mps 586 mmHg 51%
    16:00 +12°C° 0 mm 1 mps 586 mmHg 51%
    17:00 +10°C° 0 mm 1 mps 585 mmHg 58%
    18:00 +9°C° 0 mm 1 mps 584 mmHg 64%
    19:00 +7°C° 0 mm 1 mps 583 mmHg 71%
    20:00 +6°C° 0 mm 1 mps 583 mmHg 74%
    21:00 +4°C° 0 mm 1 mps 582 mmHg 78%
    22:00 +1°C° 0 mm 2 mps 582 mmHg 82%
    23:00 +2°C° 0 mm 1 mps 582 mmHg 83%

    24 May, Friday

    Time Temperature Precipitation Wind Pressure Humidity
    00:00 +1°C° 0 mm 1 mps 581 mmHg 83%
    01:00 +1°C° 0 mm 1 mps 581 mmHg 84%
    02:00 +1°C° 0 mm 1 mps 581 mmHg 84%
    03:00 0°C° 0 mm 1 mps 581 mmHg 84%
    04:00 0°C° 0 mm 1 mps 580 mmHg 84%
    05:00 +2°C° 0 mm 1 mps 581 mmHg 78%
    06:00 +4°C° 0 mm 1 mps 582 mmHg 72%
    07:00 +5°C° 0 mm 0 mps 583 mmHg 66%
    08:00 +7°C° 0 mm 0 mps 584 mmHg 60%
    09:00 +9°C° 0 mm 0 mps 585 mmHg 55%
    10:00 +11°C° 0 mm 1 mps 585 mmHg 49%
    11:00 +12°C° 0 mm 1 mps 586 mmHg 47%
    12:00 +13°C° 0 mm 1 mps 586 mmHg 45%
    13:00 +14°C° 0 mm 1 mps 586 mmHg 44%
    14:00 +13°C° 0.1 mm 1 mps 585 mmHg 46%
    15:00 +13°C° 0.1 mm 1 mps 585 mmHg 49%
    16:00 +12°C° 0.1 mm 1 mps 584 mmHg 51%
    17:00 +11°C° 0.4 mm 1 mps 584 mmHg 60%
    18:00 +9°C° 0.4 mm 1 mps 583 mmHg 69%
    19:00 +8°C° 0.4 mm 1 mps 582 mmHg 77%
    20:00 +6°C° 0.4 mm 1 mps 582 mmHg 81%
    21:00 +5°C° 0.4 mm 1 mps 582 mmHg 85%
    22:00 +4°C° 0.4 mm 1 mps 582 mmHg 89%
    23:00 +4°C° 0.2 mm 1 mps 581 mmHg 89%

    25 May, Saturday

    Time Temperature Precipitation Wind Pressure Humidity
    00:00 +4°C° 0.2 mm 1 mps 581 mmHg 90%
    01:00 +3°C° 0.2 mm 1 mps 581 mmHg 90%
    02:00 +3°C° 0.1 mm 1 mps 581 mmHg 90%
    03:00 +3°C° 0.1 mm 1 mps 581 mmHg 90%
    04:00 +3°C° 0.1 mm 1 mps 581 mmHg 91%
    05:00 +4°C° 0.1 mm 1 mps 581 mmHg 86%
    06:00 +5°C° 0.1 mm 1 mps 582 mmHg 82%
    07:00 +6°C° 0.1 mm 1 mps 583 mmHg 77%
    08:00 +8°C° 0 mm 1 mps 584 mmHg 70%
    09:00 +10°C° 0 mm 1 mps 585 mmHg 62%
    10:00 +12°C° 0 mm 1 mps 586 mmHg 55%
    11:00 +12°C° 0.2 mm 1 mps 586 mmHg 53%
    12:00 +13°C° 0.2 mm 1 mps 586 mmHg 51%
    13:00 +13°C° 0.2 mm 1 mps 586 mmHg 49%
    14:00 +13°C° 0.6 mm 1 mps 586 mmHg 53%
    15:00 +12°C° 0.6 mm 1 mps 585 mmHg 57%
    16:00 +12°C° 0.6 mm 1 mps 585 mmHg 61%
    17:00 +10°C° 1.1 mm 1 mps 584 mmHg 69%
    18:00 +9°C° 1.1 mm 1 mps 584 mmHg 77%
    19:00 +7°C° 1.1 mm 1 mps 583 mmHg 85%
    20:00 +6°C° 0.7 mm 1 mps 583 mmHg 88%
    21:00 +5°C° 0.7 mm 1 mps 583 mmHg 91%
    22:00 +4°C° 0.7 mm 1 mps 583 mmHg 93%
    23:00 +4°C° 0 mm 1 mps 583 mmHg 93%

    26 May, Sunday

    Time Temperature Precipitation Wind Pressure Humidity
    00:00 +4°C° 0 mm 1 mps 582 mmHg 93%
    01:00 +3°C° 0 mm 1 mps 582 mmHg 92%
    02:00 +3°C° 0 mm 1 mps 582 mmHg 92%
    03:00 +2°C° 0 mm 1 mps 581 mmHg 92%
    04:00 +1°C° 0 mm 2 mps 581 mmHg 92%
    05:00 +3°C° 0 mm 1 mps 582 mmHg 88%
    06:00 +5°C° 0 mm 1 mps 583 mmHg 83%
    07:00 +6°C° 0 mm 1 mps 584 mmHg 79%
    08:00 +8°C° 0 mm 1 mps 584 mmHg 70%
    09:00 +10°C° 0 mm 1 mps 585 mmHg 61%
    10:00 +12°C° 0 mm 1 mps 586 mmHg 52%
    11:00 +13°C° 0 mm 1 mps 587 mmHg 48%
    12:00 +14°C° 0 mm 1 mps 587 mmHg 45%
    13:00 +15°C° 0 mm 1 mps 587 mmHg 42%
    14:00 +15°C° 0 mm 1 mps 587 mmHg 43%
    15:00 +14°C° 0 mm 1 mps 586 mmHg 44%
    16:00 +14°C° 0 mm 1 mps 586 mmHg 45%
    17:00 +12°C° 0.1 mm 1 mps 585 mmHg 55%
    18:00 +10°C° 0.1 mm 1 mps 584 mmHg 64%
    19:00 +9°C° 0.1 mm 1 mps 584 mmHg 74%
    20:00 +7°C° 0.1 mm 1 mps 583 mmHg 78%
    21:00 +6°C° 0.1 mm 1 mps 583 mmHg 83%
    22:00 +3°C° 0.1 mm 2 mps 582 mmHg 87%
    23:00 +3°C° 0 mm 2 mps 582 mmHg 88%
    Show more